Content
SEND FEEDBACK

Daily
Averages
Monthly
Summary
United Kingdom

BEDFORD, ENGLAND


Home > Europe > United Kingdom > England
Elevation: 293 feet     Latitude: 52 13N     Longitude: 000 29W

WEATHER
 
SELECT A DAY
Number of Records: 72,269;   Date Range: 7/1/96 - 7/31/14
 
SHARE

PRINT THIS DATA

[ ← Previous Day ]
WEATHER ALMANAC - JANUARY 31, 2013
[ Next Day → ]
[ °C ]   °F
Weather ElementAverageHighLow
Temperature46.2 °F50 °F (10:50 am) (10:20 am)
Dewpoint35.4 °F41 °F (8:20 am) (7:00 pm)
Humidity65.6 %81 % (8:20 am)54 % (1:50 pm)
Barometer29.78 in29.83 in (4:20 pm)29.71 in (8:20 am)
Wind Speed19.6 mph26.5 mph (11:20 am)
Wind Gust43.7 mph (1:50 pm)
Weather ElementAverage
Visibility6.2 mi
Wind DirectionWSW (252 °)

Weather ElementTotal
Precipitation---
Heating Degree Days40 (Base 65)
Averaged from 20 records on January 31, 2013
WEATHER CONDITIONS BREAKOUT
WIND DIRECTION BREAKOUT
WEATHER BY HOUR - JANUARY 31, 2013
[ °C ]   °F
Local TimeTemperatureDewpointHumidityBarometerVisibilityWind DirectionWind SpeedGust SpeedPrecipitationEventsConditions
8:20 AM46.4 °F41.0 °F81 %29.71 in6.2 miWSW (250°)19.6 mph32.2 mphPartly Cloudy
8:50 AM46.4 °F41.0 °F81 %29.74 in6.2 miWSW (240°)17.3 mphScattered Clouds
9:20 AM48.2 °F41.0 °F76 %29.71 in6.2 miWSW (240°)16.1 mph27.6 mphScattered Clouds
9:50 AM46.4 °F41.0 °F81 %29.74 in6.2 miWSW (240°)20.7 mphScattered Clouds
10:20 AM0.0 °F0.0 °F29.74 in6.2 miWSW (240°)17.3 mph29.9 mphPartly Cloudy
10:50 AM50.0 °F39.2 °F66 %29.77 in6.2 miWSW (250°)24.2 mphScattered Clouds
11:20 AM48.2 °F37.4 °F66 %29.77 in6.2 miWest (260°)26.5 mph38.0 mphScattered Clouds
11:50 AM50.0 °F35.6 °F58 %29.77 in6.2 miWest (260°)24.2 mph38.0 mphScattered Clouds
12:20 PM50.0 °F39.2 °F66 %29.77 in6.2 miWest (260°)16.1 mphScattered Clouds
12:50 PM50.0 °F35.6 °F58 %29.77 in6.2 miWest (270°)23.0 mph34.5 mphScattered Clouds
1:20 PM50.0 °F35.6 °F58 %29.80 in6.2 miWest (260°)21.9 mph35.7 mphPartly Cloudy
1:50 PM50.0 °F33.8 °F54 %29.80 in6.2 miWest (270°)24.2 mph43.7 mphPartly Cloudy
2:20 PM50.0 °F33.8 °F54 %29.80 in6.2 miWest (260°)26.5 mph42.6 mphPartly Cloudy
2:50 PM50.0 °F33.8 °F54 %29.80 in6.2 miWest (260°)19.6 mphPartly Cloudy
3:20 PM48.2 °F35.6 °F62 %29.80 in6.2 miWest (260°)17.3 mphPartly Cloudy
3:50 PM48.2 °F35.6 °F62 %29.80 in6.2 miWSW (250°)17.3 mphPartly Cloudy
4:20 PM48.2 °F35.6 °F62 %29.83 in6.2 miWSW (250°)16.1 mphScattered Clouds
4:50 PM48.2 °F37.4 °F66 %29.83 in6.2 miWSW (240°)15.0 mph29.9 mphScattered Clouds
5:20 PM48.2 °F37.4 °F66 %29.83 in6.2 miWSW (240°)15.0 mphScattered Clouds
5:50 PM46.4 °F39.2 °F76 %29.83 in6.2 miWSW (240°)15.0 mphScattered Clouds
Hourly data recorded from EGTC, located miles away from Bedford, England







STORIES FROM OUR PARTNERS